Time,TemperatureF,DewpointF,PressureIn,WindDirection,WindDirectionDegrees,WindSpeedMPH,WindSpeedGustMPH,Humidity,HourlyPrecipIn,Conditions,Clouds,dailyrainin,SoftwareType,DateUTC
2013-08-30 00:05:00,75.2,73.3,29.85,SSW,202,0.0,-999.0,94,-99.99,,,0.00,Acu-Link.com,2013-08-30 04:05:00,
2013-08-30 00:21:00,75.2,73.3,29.86,SSW,202,0.0,-999.0,94,-99.99,,,0.00,Acu-Link.com,2013-08-30 04:21:00,
2013-08-30 00:36:00,74.7,73.2,29.87,SE,135,0.0,-999.0,95,-99.99,,,0.00,Acu-Link.com,2013-08-30 04:36:00,
2013-08-30 00:51:00,74.7,72.9,29.87,SW,225,0.0,-999.0,94,-99.99,,,0.00,Acu-Link.com,2013-08-30 04:51:00,
2013-08-30 01:07:00,74.8,73.0,29.87,NNW,337,0.0,-999.0,94,-99.99,,,0.00,Acu-Link.com,2013-08-30 05:07:00,
2013-08-30 01:22:00,74.8,73.0,29.86,NNW,337,0.0,-999.0,94,-99.99,,,0.00,Acu-Link.com,2013-08-30 05:22:00,
2013-08-30 01:37:00,75.0,73.2,29.86,NNW,337,0.0,-999.0,94,-99.99,,,0.00,Acu-Link.com,2013-08-30 05:37:00,
2013-08-30 01:53:00,74.8,73.0,29.86,NNW,337,0.0,-999.0,94,-99.99,,,0.00,Acu-Link.com,2013-08-30 05:53:00,
2013-08-30 02:08:00,74.8,73.0,29.86,North,0,0.0,-999.0,94,-99.99,,,0.00,Acu-Link.com,2013-08-30 06:08:00,
2013-08-30 02:24:00,74.7,73.2,29.86,NNW,337,0.0,-999.0,95,-99.99,,,0.00,Acu-Link.com,2013-08-30 06:24:00,
2013-08-30 02:39:00,74.7,73.2,29.86,North,0,0.0,-999.0,95,-99.99,,,0.00,Acu-Link.com,2013-08-30 06:39:00,
2013-08-30 02:54:00,74.7,72.9,29.87,NNW,337,0.0,-999.0,94,-99.99,,,0.00,Acu-Link.com,2013-08-30 06:54:00,
2013-08-30 03:10:00,74.5,72.3,29.87,NNE,22,0.0,-999.0,93,-99.99,,,0.00,Acu-Link.com,2013-08-30 07:10:00,
2013-08-30 03:25:00,74.7,72.5,29.87,NNW,337,0.0,-999.0,93,-99.99,,,0.00,Acu-Link.com,2013-08-30 07:25:00,
2013-08-30 03:40:00,74.3,72.5,29.88,NNW,337,0.0,-999.0,94,-99.99,,,0.00,Acu-Link.com,2013-08-30 07:40:00,
2013-08-30 03:56:00,74.7,72.9,29.87,NNE,22,0.0,-999.0,94,-99.99,,,0.00,Acu-Link.com,2013-08-30 07:56:00,
2013-08-30 04:12:00,74.7,72.9,29.87,NNE,22,0.0,-999.0,94,-99.99,,,0.00,Acu-Link.com,2013-08-30 08:12:00,
2013-08-30 04:27:00,74.8,73.3,29.88,North,0,0.0,-999.0,95,-99.99,,,0.00,Acu-Link.com,2013-08-30 08:27:00,
2013-08-30 04:43:00,74.8,73.3,29.88,North,0,0.0,-999.0,95,-99.99,,,0.00,Acu-Link.com,2013-08-30 08:43:00,
2013-08-30 04:58:00,75.2,73.7,29.88,SW,225,0.0,-999.0,95,-99.99,,,0.00,Acu-Link.com,2013-08-30 08:58:00,
2013-08-30 05:13:00,74.8,73.6,29.88,NNW,337,2.2,-999.0,96,-99.99,,,0.01,Acu-Link.com,2013-08-30 09:13:00,
2013-08-30 05:28:00,74.1,73.8,29.88,West,270,0.0,-999.0,99,-99.99,,,0.01,Acu-Link.com,2013-08-30 09:28:00,
2013-08-30 05:44:00,74.5,74.2,29.89,SSE,157,0.0,-999.0,99,-99.99,,,0.01,Acu-Link.com,2013-08-30 09:44:00,
2013-08-30 05:59:00,74.5,74.2,29.89,SE,135,0.0,-999.0,99,-99.99,,,0.01,Acu-Link.com,2013-08-30 09:59:00,
2013-08-30 06:14:00,74.3,74.0,29.89,SSW,202,0.0,-999.0,99,-99.99,,,0.01,Acu-Link.com,2013-08-30 10:14:00,
2013-08-30 06:30:00,74.3,74.0,29.90,SSE,157,0.0,-999.0,99,-99.99,,,0.01,Acu-Link.com,2013-08-30 10:30:00,
2013-08-30 06:45:00,74.3,74.0,29.91,SW,225,0.0,-999.0,99,-99.99,,,0.01,Acu-Link.com,2013-08-30 10:45:00,
2013-08-30 07:00:00,74.5,74.2,29.90,South,180,0.0,-999.0,99,-99.99,,,0.01,Acu-Link.com,2013-08-30 11:00:00,
2013-08-30 07:15:00,74.3,74.0,29.91,NW,315,0.0,-999.0,99,-99.99,,,0.01,Acu-Link.com,2013-08-30 11:15:00,
2013-08-30 07:31:00,74.1,73.8,29.91,East,90,0.0,-999.0,99,-99.99,,,0.01,Acu-Link.com,2013-08-30 11:31:00,
2013-08-30 07:46:00,74.3,74.0,29.92,SW,225,0.0,-999.0,99,-99.99,,,0.01,Acu-Link.com,2013-08-30 11:46:00,
2013-08-30 08:01:00,74.3,74.0,29.92,ESE,112,0.0,-999.0,99,-99.99,,,0.01,Acu-Link.com,2013-08-30 12:01:00,
2013-08-30 08:17:00,74.3,73.7,29.92,SW,225,0.0,-999.0,98,-99.99,,,0.01,Acu-Link.com,2013-08-30 12:17:00,
2013-08-30 08:32:00,74.5,74.2,29.92,NW,315,0.0,-999.0,99,-99.99,,,0.01,Acu-Link.com,2013-08-30 12:32:00,
2013-08-30 08:47:00,74.7,74.1,29.92,WNW,292,0.0,-999.0,98,-99.99,,,0.01,Acu-Link.com,2013-08-30 12:47:00,
2013-08-30 09:03:00,74.7,73.8,29.93,SSE,157,0.0,-999.0,97,-99.99,,,0.01,Acu-Link.com,2013-08-30 13:03:00,
2013-08-30 09:18:00,74.7,73.8,29.93,West,270,0.0,-999.0,97,-99.99,,,0.01,Acu-Link.com,2013-08-30 13:18:00,
2013-08-30 09:33:00,75.2,73.7,29.93,WNW,292,0.0,-999.0,95,-99.99,,,0.01,Acu-Link.com,2013-08-30 13:33:00,
2013-08-30 09:53:00,75.4,74.2,29.93,West,270,2.2,-999.0,96,-99.99,,,0.02,Acu-Link.com,2013-08-30 13:53:00,
2013-08-30 10:08:00,75.9,74.0,29.94,West,270,0.0,-999.0,94,-99.99,,,0.03,Acu-Link.com,2013-08-30 14:08:00,
2013-08-30 10:31:00,77.4,74.2,29.94,ESE,112,0.0,-999.0,90,-99.99,,,0.03,Acu-Link.com,2013-08-30 14:31:00,
2013-08-30 10:46:00,77.2,74.7,29.94,South,180,0.0,-999.0,92,-99.99,,,0.46,Acu-Link.com,2013-08-30 14:46:00,
2013-08-30 11:01:00,77.9,74.0,29.95,West,270,0.0,-999.0,88,-99.99,,,1.19,Acu-Link.com,2013-08-30 15:01:00,
2013-08-30 11:17:00,77.4,73.9,29.95,South,180,0.0,-999.0,89,-99.99,,,1.21,Acu-Link.com,2013-08-30 15:17:00,
2013-08-30 11:32:00,77.2,73.4,29.95,NNE,22,0.0,-999.0,88,-99.99,,,1.21,Acu-Link.com,2013-08-30 15:32:00,
2013-08-30 11:47:00,78.1,74.9,29.94,SSE,157,0.0,-999.0,90,-99.99,,,1.21,Acu-Link.com,2013-08-30 15:47:00,
2013-08-30 12:03:00,78.6,74.4,29.93,NW,315,0.0,-999.0,87,-99.99,,,1.21,Acu-Link.com,2013-08-30 16:03:00,
2013-08-30 12:18:00,78.6,73.7,29.93,NE,45,0.0,-999.0,85,-99.99,,,1.21,Acu-Link.com,2013-08-30 16:18:00,
2013-08-30 12:34:00,78.8,75.3,29.94,SSE,157,0.0,-999.0,89,-99.99,,,1.21,Acu-Link.com,2013-08-30 16:34:00,
2013-08-30 12:49:00,79.2,75.0,29.93,SW,225,0.0,-999.0,87,-99.99,,,1.21,Acu-Link.com,2013-08-30 16:49:00,
2013-08-30 13:04:00,79.7,75.1,29.92,West,270,0.0,-999.0,86,-99.99,,,1.21,Acu-Link.com,2013-08-30 17:04:00,
2013-08-30 13:19:00,79.7,74.4,29.92,West,270,0.0,-999.0,84,-99.99,,,1.21,Acu-Link.com,2013-08-30 17:19:00,
2013-08-30 13:35:00,79.2,74.6,29.92,West,270,0.0,-999.0,86,-99.99,,,1.21,Acu-Link.com,2013-08-30 17:35:00,
2013-08-30 13:50:00,79.5,74.2,29.91,West,270,0.0,-999.0,84,-99.99,,,1.21,Acu-Link.com,2013-08-30 17:50:00,
2013-08-30 14:05:00,79.7,74.8,29.91,West,270,0.0,-999.0,85,-99.99,,,1.21,Acu-Link.com,2013-08-30 18:05:00,
2013-08-30 14:20:00,79.9,75.0,29.90,WNW,292,0.0,-999.0,85,-99.99,,,1.21,Acu-Link.com,2013-08-30 18:20:00,
2013-08-30 14:36:00,80.8,75.5,29.90,NNE,22,0.0,-999.0,84,-99.99,,,1.21,Acu-Link.com,2013-08-30 18:36:00,
2013-08-30 14:51:00,81.1,75.4,29.89,NE,45,0.0,-999.0,83,-99.99,,,1.21,Acu-Link.com,2013-08-30 18:51:00,
2013-08-30 15:06:00,81.5,75.8,29.88,NNE,22,0.0,-999.0,83,-99.99,,,1.21,Acu-Link.com,2013-08-30 19:06:00,
2013-08-30 15:22:00,82.0,74.8,29.87,NW,315,0.0,-999.0,79,-99.99,,,1.21,Acu-Link.com,2013-08-30 19:22:00,
2013-08-30 15:37:00,82.8,75.2,29.86,NNE,22,0.0,-999.0,78,-99.99,,,1.21,Acu-Link.com,2013-08-30 19:37:00,
2013-08-30 15:52:00,83.7,74.9,29.85,West,270,0.0,-999.0,75,-99.99,,,1.21,Acu-Link.com,2013-08-30 19:52:00,
2013-08-30 16:08:00,83.3,74.9,29.85,South,180,0.0,-999.0,76,-99.99,,,1.21,Acu-Link.com,2013-08-30 20:08:00,
2013-08-30 16:23:00,84.2,75.8,29.85,NE,45,0.0,-999.0,76,-99.99,,,1.21,Acu-Link.com,2013-08-30 20:23:00,
2013-08-30 16:38:00,84.2,75.8,29.84,South,180,0.0,-999.0,76,-99.99,,,1.21,Acu-Link.com,2013-08-30 20:38:00,
2013-08-30 16:53:00,84.7,76.7,29.84,East,90,0.0,-999.0,77,-99.99,,,1.21,Acu-Link.com,2013-08-30 20:53:00,
2013-08-30 17:09:00,83.8,76.2,29.84,SSE,157,0.0,-999.0,78,-99.99,,,1.21,Acu-Link.com,2013-08-30 21:09:00,
2013-08-30 17:24:00,84.2,76.6,29.84,South,180,0.0,-999.0,78,-99.99,,,1.21,Acu-Link.com,2013-08-30 21:24:00,
2013-08-30 17:39:00,83.8,75.4,29.83,South,180,0.0,-999.0,76,-99.99,,,1.21,Acu-Link.com,2013-08-30 21:39:00,
2013-08-30 17:55:00,82.9,74.5,29.84,SSW,202,0.0,-999.0,76,-99.99,,,1.21,Acu-Link.com,2013-08-30 21:55:00,
2013-08-30 18:10:00,82.0,74.4,29.83,SW,225,0.0,-999.0,78,-99.99,,,1.21,Acu-Link.com,2013-08-30 22:10:00,
2013-08-30 18:25:00,81.3,73.8,29.83,SSW,202,0.0,-999.0,78,-99.99,,,1.21,Acu-Link.com,2013-08-30 22:25:00,
2013-08-30 18:40:00,80.8,74.0,29.84,SSW,202,0.0,-999.0,80,-99.99,,,1.21,Acu-Link.com,2013-08-30 22:40:00,
2013-08-30 18:56:00,80.6,74.6,29.83,SSW,202,0.0,-999.0,82,-99.99,,,1.21,Acu-Link.com,2013-08-30 22:56:00,
2013-08-30 19:11:00,80.2,74.9,29.84,SSW,202,0.0,-999.0,84,-99.99,,,1.21,Acu-Link.com,2013-08-30 23:11:00,
2013-08-30 19:26:00,79.3,75.1,29.83,SSW,202,0.0,-999.0,87,-99.99,,,1.21,Acu-Link.com,2013-08-30 23:26:00,
2013-08-30 19:42:00,79.2,75.7,29.83,SSW,202,0.0,-999.0,89,-99.99,,,1.21,Acu-Link.com,2013-08-30 23:42:00,
2013-08-30 19:57:00,78.6,75.4,29.83,SSW,202,0.0,-999.0,90,-99.99,,,1.21,Acu-Link.com,2013-08-30 23:57:00,
2013-08-30 20:13:00,77.9,75.4,29.83,South,180,0.0,-999.0,92,-99.99,,,1.21,Acu-Link.com,2013-08-31 00:13:00,
2013-08-30 20:28:00,77.9,75.1,29.83,South,180,0.0,-999.0,91,-99.99,,,1.21,Acu-Link.com,2013-08-31 00:28:00,
2013-08-30 20:43:00,77.5,74.7,29.84,NNW,337,0.0,-999.0,91,-99.99,,,1.21,Acu-Link.com,2013-08-31 00:43:00,
2013-08-30 20:58:00,77.0,74.5,29.85,SSW,202,0.0,-999.0,92,-99.99,,,1.21,Acu-Link.com,2013-08-31 00:58:00,
2013-08-30 21:14:00,76.5,74.3,29.86,SSW,202,0.0,-999.0,93,-99.99,,,1.21,Acu-Link.com,2013-08-31 01:14:00,
2013-08-30 21:29:00,76.5,74.0,29.85,SSW,202,0.0,-999.0,92,-99.99,,,1.21,Acu-Link.com,2013-08-31 01:29:00,
2013-08-30 21:44:00,76.3,74.1,29.86,SSW,202,0.0,-999.0,93,-99.99,,,1.21,Acu-Link.com,2013-08-31 01:44:00,
2013-08-30 22:00:00,76.3,74.1,29.87,SSW,202,0.0,-999.0,93,-99.99,,,1.21,Acu-Link.com,2013-08-31 02:00:00,
2013-08-30 22:15:00,76.3,74.4,29.87,SSW,202,0.0,-999.0,94,-99.99,,,1.21,Acu-Link.com,2013-08-31 02:15:00,
2013-08-30 22:31:00,76.3,74.4,29.86,NW,315,0.0,-999.0,94,-99.99,,,1.21,Acu-Link.com,2013-08-31 02:31:00,
2013-08-30 22:46:00,76.3,74.4,29.86,NW,315,0.0,-999.0,94,-99.99,,,1.21,Acu-Link.com,2013-08-31 02:46:00,
2013-08-30 23:01:00,76.3,74.4,29.86,NW,315,0.0,-999.0,94,-99.99,,,1.21,Acu-Link.com,2013-08-31 03:01:00,
2013-08-30 23:17:00,76.3,74.4,29.87,NW,315,0.0,-999.0,94,-99.99,,,1.21,Acu-Link.com,2013-08-31 03:17:00,
2013-08-30 23:32:00,76.3,74.4,29.88,NW,315,0.0,-999.0,94,-99.99,,,1.21,Acu-Link.com,2013-08-31 03:32:00,
2013-08-30 23:47:00,76.1,74.2,29.87,NW,315,0.0,-999.0,94,-99.99,,,1.21,Acu-Link.com,2013-08-31 03:47:00,